Regional Weather Roundup
Issued by NWS

Home | Current Version | Previous Version | Graphics & Text | Print | Product List | Glossary On
Versions: 1 2 3 4 5 6 7 8 9 10 11 12 13 14 15 16 17 18 19 20 21 22 23 24 25 26 27 28 29 30 31 32 33 34 35 36 37 38 39 40 41 42 43 44 45 46 47 48 49 50
000
ASUS43 KDMX 290003
RWRIA

WEATHER ROUNDUP FOR IOWA
NATIONAL WEATHER SERVICE DES MOINES IA
700 PM CDT SUN AUG 28 2016

NOTE: "FAIR" INDICATES FEW OR NO CLOUDS BELOW 12,000 FEET WITH NO
SIGNIFICANT WEATHER AND/OR OBSTRUCTIONS TO VISIBILITY.

* - THESE STATIONS ARE NOT NWS STATIONS...THUS NOT UNDER NWS
QUALITY CONTROL.  THEY ALSO DO NOT REPORT WEATHER SUCH
AS PRECIPITATION OR FOG.

IAZ001>003-012>014-020>022-031>034-043>046-290100-
   NORTHWEST IOWA

CITY           SKY/WX    TMP DP  RH WIND       PRES   REMARKS
CARROLL *      CLOUDY    73  68  83 SW13      30.10F
CHEROKEE *     CLOUDY    82  75  80 SE7       30.08R HX  88
DENISON *      CLOUDY    70  68  94 SW8       30.11R
LE MARS *      CLOUDY    84  73  70 SE8       30.06R HX  91
ORANGE CITY *  MOSUNNY   82  73  74 SE6       30.07R HX  88
SHELDON *      MOSUNNY   82  75  78 SE10      30.06R HX  89
SIOUX CITY     MOSUNNY   84  74  71 SE10      30.04R HX  91
6HR MIN TEMP:  84; 6HR MAX TEMP:  88;

SPENCER        CLOUDY    82  71  69 SE10      30.09R HX  86
6HR MIN TEMP:  82; 6HR MAX TEMP:  87;

STORM LAKE *   MOSUNNY   79  73  83 SE14      30.10S HX  82
$$

IAZ055>058-069>071-079>083-090>094-290100-
   SOUTHWEST IOWA

CITY           SKY/WX    TMP DP  RH WIND       PRES   REMARKS
ATLANTIC *     CLOUDY    75  68  78 S8        30.10S
AUDUBON *      LGT RAIN  70  66  88 CALM      30.14F
CLARINDA *       N/A     72  68  88 MISG      30.12F
COUNCIL BLFS * MOSUNNY   75  68  78 SE15G23   30.11R
CRESTON *      CLOUDY    70  68  94 CALM      30.13F
HARLAN  *      CLOUDY    75  68  78 CALM      30.15S
LAMONI         CLOUDY    72  70  93 CALM      30.11F
6HR MIN TEMP:  71; 6HR MAX TEMP:  86; 6HR PCP:  0.03;

RED OAK *      PTSUNNY   72  68  88 S6        30.11S
SHENANDOAH *   PTSUNNY   70 -38   1 E6        30.09F
$$

IAZ047>049-059>061-072>074-084-290100-
   CENTRAL IOWA

CITY           SKY/WX    TMP DP  RH WIND       PRES   REMARKS
AMES           CLOUDY    79  74  84 S10       30.10S HX  82
6HR MIN TEMP:  79; 6HR MAX TEMP:  88;

ANKENY *         N/A    N/A N/A N/A MISG        N/A
BOONE *        CLOUDY    77  73  88 S12       30.10F
CHARITON *     LGT RAIN  75  73  94 MISG      30.09F
DES MOINES     CLOUDY    77  69  76 NW3       30.10F
6HR MIN TEMP:  75; 6HR MAX TEMP:  90; 6HR PCP:  0.42;

GRINNELL*      CLOUDY    79  72  79 CALM      30.12S HX  82
KNOXVILLE *    CLOUDY    72  68  88 NW7       30.10S
MARSHALLTOWN   CLOUDY    80  74  81 SE6       30.11R HX  85
6HR MIN TEMP:  80; 6HR MAX TEMP:  87;

NEWTON *       CLOUDY    75  70  83 SW5       30.12R
PELLA *        LGT RAIN  76  71  86 NW5       30.12S
PERRY *          N/A     75  70  85 SW5       30.11F
$$

IAZ004>006-015-016-023>025-035-036-290100-
   NORTH CENTRAL IOWA

CITY           SKY/WX    TMP DP  RH WIND       PRES   REMARKS
ALGONA *       CLEAR     82  70  65 SE3       30.11R HX  86
ESTHERVILLE    CLEAR     79  72  79 SE8       30.09S HX  82
6HR MIN TEMP:  79; 6HR MAX TEMP:  83;

FORT DODGE *   CLOUDY    82  70  65 S8        30.11S HX  86
MASON CITY     CLEAR     81  72  74 SE6       30.13S HX  85
6HR MIN TEMP:  79; 6HR MAX TEMP:  83;

FOREST CITY *    N/A    N/A N/A N/A MISG        N/A
WEBSTER CITY * CLOUDY    79  73  83 SE6       30.09R HX  82
IOWA FALLS *     N/A     80  73  77 CALM      30.12S HX  84
$$

IAZ007>011-017>019-026>030-037>042-050>054-066-290100-
   NORTHEAST IOWA

CITY           SKY/WX    TMP DP  RH WIND       PRES   REMARKS
CEDAR RAPIDS   CLOUDY    81  75  82 E6        30.12R HX  87
6HR MIN TEMP:  78; 6HR MAX TEMP:  85; 6HR PCP: TRACE;

CHARLES CITY * PTCLDY    82  75  78 SE7       30.13S HX  89
CLINTON *      LGT RAIN  72  70  93 S6        30.17S
DECORAH *      CLEAR     79  72  78 E7        30.14S HX  82
DUBUQUE        CLOUDY    75  69  81 CALM      30.17R
6HR MIN TEMP:  74; 6HR MAX TEMP:  86; 6HR PCP: TRACE;

MONTICELLO *   PTCLDY    75  70  83 CALM      30.15R
OELWEIN *      CLOUDY    79  75  89 SE7       30.14S HX  82
WATERLOO       CLOUDY    81  71  71 S9        30.10S HX  85
6HR MIN TEMP:  81; 6HR MAX TEMP:  86;

$$

IAZ064-065-067-068-078-290100-
   EAST CENTRAL IOWA

CITY           SKY/WX    TMP DP  RH WIND       PRES   REMARKS
DAVENPORT      CLOUDY    73  69  87 E9        30.19R THUNDER
6HR MIN TEMP:  73; 6HR MAX TEMP:  88; 6HR PCP:  0.01;

IOWA CITY      MOCLDY    85  74  69 E3        30.12R HX  92
6HR MIN TEMP:  80; 6HR MAX TEMP:  87;

MT. PLEASANT * CLOUDY    80  75  84 SE6       30.12S HX  84
MUSCATINE *    CLOUDY    81  68  65 SE7       30.13R HX  83
QUAD CITIES    CLOUDY    74  70  87 E10       30.16R
6HR MIN TEMP:  74; 6HR MAX TEMP:  89; 6HR PCP:  0.02;

$$

IAZ062-063-075>077-085>089-095>099-290100-
   SOUTHEAST IOWA

CITY           SKY/WX    TMP DP  RH WIND       PRES   REMARKS
BURLINGTON     CLOUDY    80  74  81 NE6       30.11F HX  85
FAIRFIELD *    CLOUDY    72  66  83 CALM      30.12R
FORT MADISON *   N/A     81  73  78 CALM      30.13R HX  85
KEOKUK *       CLOUDY    81  73  78 CALM      30.11R HX  85
OSKALOOSA *      N/A     79  74  86 E5        30.12R HX  83
CENTERVILLE *    N/A     77  72  83 CALM      30.12F
OTTUMWA        CLOUDY    81  75  82 SE3       30.11R HX  87
6HR MIN TEMP:  76; 6HR MAX TEMP:  86; 6HR PCP:  0.03;

WASHINGTON *   CLOUDY    82  77  83 CALM      30.12S HX  91
$$

ABBREVIATIONS USED IN REMARKS
   TC - TEMPERATURES IN CELSIUS
  WCI - WIND CHILL INDEX
   HX - HEAT INDEX
  VSB - VISIBILITY
$$





USA.gov is the U.S. government's official web portal to all federal, state and local government web resources and services.